When you browse on this site, cookies collect data to enhance your experience and personalize the content and advertising you see.
Visit our Privacy Policy to learn more. By continuing to use the site, you agree to this use of cookies and data.
  • în România
  • Lista ţărilor
  • Pe 7 zile
  • Temperatura apei
  • Hartă satelitară
  • Meteo pe hartă
  • Widget-uri
  • user-avatar
    Intrare

    Meteo pe oră la Sosvyatskoe

    Astăzi, 17 Ianuarie, Joi

    Timp Temperatura Precipitaţii Vânt Presiune Umiditate
    00:00 -10°C° 0 mm 2 m/s 733 mmHg 95%
    01:00 -12°C° 0 mm 2 m/s 733 mmHg 96%
    02:00 -12°C° 0 mm 2 m/s 733 mmHg 97%
    03:00 -13°C° 0 mm 3 m/s 733 mmHg 95%
    04:00 -12°C° 0 mm 4 m/s 732 mmHg 94%
    05:00 -12°C° 0 mm 4 m/s 732 mmHg 93%
    06:00 -11°C° 0.4 mm 5 m/s 731 mmHg 93%
    07:00 -10°C° 0.4 mm 5 m/s 731 mmHg 93%
    08:00 -9°C° 0.4 mm 6 m/s 730 mmHg 93%
    09:00 -6°C° 0.5 mm 6 m/s 729 mmHg 92%
    10:00 -5°C° 0.5 mm 6 m/s 729 mmHg 91%
    11:00 -3°C° 0.5 mm 6 m/s 729 mmHg 90%
    12:00 -3°C° 0.2 mm 6 m/s 728 mmHg 90%
    13:00 -2°C° 0.2 mm 6 m/s 728 mmHg 89%
    14:00 -2°C° 0.2 mm 6 m/s 727 mmHg 89%
    15:00 -2°C° 0.7 mm 6 m/s 727 mmHg 89%
    16:00 -2°C° 0.7 mm 6 m/s 726 mmHg 89%
    17:00 -2°C° 0.7 mm 7 m/s 726 mmHg 89%
    18:00 -2°C° 0.5 mm 7 m/s 726 mmHg 88%
    19:00 -2°C° 0.5 mm 7 m/s 725 mmHg 88%
    20:00 -2°C° 0.5 mm 7 m/s 725 mmHg 87%
    21:00 -2°C° 0.2 mm 6 m/s 726 mmHg 88%
    22:00 -2°C° 0.2 mm 6 m/s 726 mmHg 88%
    23:00 -2°C° 0.2 mm 6 m/s 726 mmHg 89%

    Mâine, 18 Ianuarie, Vineri

    Timp Temperatura Precipitaţii Vânt Presiune Umiditate
    00:00 -2°C° 0.1 mm 6 m/s 727 mmHg 88%
    01:00 -2°C° 0.1 mm 6 m/s 728 mmHg 88%
    02:00 -2°C° 0.1 mm 6 m/s 728 mmHg 88%
    03:00 -2°C° 0 mm 6 m/s 729 mmHg 88%
    04:00 -2°C° 0 mm 6 m/s 729 mmHg 88%
    05:00 -2°C° 0 mm 6 m/s 729 mmHg 89%
    06:00 -1°C° 0.1 mm 5 m/s 730 mmHg 89%
    07:00 -1°C° 0.1 mm 5 m/s 730 mmHg 89%
    08:00 -1°C° 0.1 mm 5 m/s 731 mmHg 89%
    09:00 -1°C° 0.2 mm 5 m/s 731 mmHg 90%
    10:00 -1°C° 0.2 mm 4 m/s 732 mmHg 92%
    11:00 -1°C° 0.2 mm 4 m/s 732 mmHg 93%
    12:00 -1°C° 0.4 mm 3 m/s 732 mmHg 94%
    13:00 -1°C° 0.4 mm 2 m/s 732 mmHg 95%
    14:00 -1°C° 0.4 mm 2 m/s 731 mmHg 97%
    15:00 -2°C° 1.5 mm 2 m/s 731 mmHg 97%
    16:00 -3°C° 1.5 mm 2 m/s 731 mmHg 97%
    17:00 -3°C° 1.5 mm 2 m/s 730 mmHg 97%
    18:00 -5°C° 1 mm 3 m/s 731 mmHg 95%
    19:00 -8°C° 1 mm 4 m/s 731 mmHg 94%
    20:00 -10°C° 1 mm 5 m/s 731 mmHg 93%
    21:00 -9°C° 0.2 mm 4 m/s 732 mmHg 92%
    22:00 -10°C° 0.2 mm 4 m/s 733 mmHg 91%
    23:00 -9°C° 0.2 mm 3 m/s 734 mmHg 91%

    Poimâine, 19 Ianuarie, Sâmbătă

    Timp Temperatura Precipitaţii Vânt Presiune Umiditate
    00:00 -10°C° 0 mm 3 m/s 734 mmHg 92%
    01:00 -12°C° 0 mm 3 m/s 735 mmHg 93%
    02:00 -12°C° 0 mm 3 m/s 736 mmHg 94%
    03:00 -12°C° 0 mm 3 m/s 737 mmHg 94%
    04:00 -10°C° 0 mm 3 m/s 737 mmHg 94%
    05:00 -10°C° 0 mm 3 m/s 737 mmHg 94%
    06:00 -9°C° 0 mm 3 m/s 738 mmHg 94%
    07:00 -9°C° 0 mm 3 m/s 738 mmHg 94%
    08:00 -9°C° 0 mm 3 m/s 739 mmHg 94%
    09:00 -8°C° 0 mm 3 m/s 739 mmHg 93%
    10:00 -9°C° 0 mm 4 m/s 739 mmHg 93%
    11:00 -8°C° 0 mm 4 m/s 740 mmHg 92%
    12:00 -8°C° 0.1 mm 4 m/s 740 mmHg 92%
    13:00 -8°C° 0.1 mm 4 m/s 740 mmHg 91%
    14:00 -8°C° 0.1 mm 4 m/s 740 mmHg 91%
    15:00 -8°C° 0.1 mm 4 m/s 740 mmHg 91%
    16:00 -8°C° 0.1 mm 4 m/s 740 mmHg 91%
    17:00 -8°C° 0.1 mm 4 m/s 740 mmHg 91%
    18:00 -8°C° 0 mm 4 m/s 741 mmHg 91%
    19:00 -8°C° 0 mm 4 m/s 741 mmHg 91%
    20:00 -8°C° 0 mm 4 m/s 741 mmHg 91%
    21:00 -8°C° 0 mm 3 m/s 741 mmHg 92%
    22:00 -9°C° 0 mm 3 m/s 741 mmHg 94%
    23:00 -10°C° 0 mm 3 m/s 742 mmHg 95%

    20 Ianuarie, Duminică

    Timp Temperatura Precipitaţii Vânt Presiune Umiditate
    00:00 -9°C° 0 mm 3 m/s 742 mmHg 96%
    01:00 -9°C° 0 mm 3 m/s 742 mmHg 96%
    02:00 -9°C° 0 mm 3 m/s 742 mmHg 97%
    03:00 -9°C° 0 mm 3 m/s 742 mmHg 96%
    04:00 -9°C° 0 mm 3 m/s 742 mmHg 95%
    05:00 -9°C° 0 mm 3 m/s 742 mmHg 95%
    06:00 -9°C° 0 mm 3 m/s 742 mmHg 95%
    07:00 -10°C° 0 mm 3 m/s 742 mmHg 95%
    08:00 -12°C° 0 mm 3 m/s 742 mmHg 95%
    09:00 -10°C° 0 mm 3 m/s 742 mmHg 95%
    10:00 -9°C° 0 mm 3 m/s 742 mmHg 94%
    11:00 -10°C° 0 mm 4 m/s 743 mmHg 94%
    12:00 -9°C° 0.1 mm 4 m/s 742 mmHg 92%
    13:00 -8°C° 0.1 mm 4 m/s 742 mmHg 90%
    14:00 -7°C° 0.1 mm 4 m/s 742 mmHg 88%
    15:00 -8°C° 0.3 mm 4 m/s 742 mmHg 90%
    16:00 -8°C° 0.3 mm 4 m/s 742 mmHg 91%
    17:00 -8°C° 0.3 mm 4 m/s 741 mmHg 92%
    18:00 -7°C° 0.1 mm 3 m/s 741 mmHg 93%
    19:00 -7°C° 0.1 mm 3 m/s 741 mmHg 94%
    20:00 -6°C° 0.1 mm 2 m/s 741 mmHg 94%
    21:00 -6°C° 0.1 mm 2 m/s 741 mmHg 95%
    22:00 -6°C° 0.1 mm 2 m/s 741 mmHg 96%
    23:00 -7°C° 0.1 mm 2 m/s 740 mmHg 97%

    21 Ianuarie, Luni

    Timp Temperatura Precipitaţii Vânt Presiune Umiditate
    00:00 -7°C° 0.5 mm 3 m/s 740 mmHg 95%
    01:00 -8°C° 0.5 mm 4 m/s 740 mmHg 94%
    02:00 -8°C° 0.5 mm 5 m/s 739 mmHg 92%
    03:00 -8°C° 0.3 mm 5 m/s 739 mmHg 93%
    04:00 -8°C° 0.3 mm 4 m/s 738 mmHg 93%
    05:00 -8°C° 0.3 mm 4 m/s 738 mmHg 93%
    06:00 -8°C° 0.3 mm 4 m/s 738 mmHg 93%
    07:00 -8°C° 0.3 mm 4 m/s 739 mmHg 93%
    08:00 -9°C° 0.3 mm 4 m/s 739 mmHg 92%
    09:00 -9°C° 0.1 mm 4 m/s 739 mmHg 91%
    10:00 -10°C° 0.1 mm 4 m/s 740 mmHg 90%
    11:00 -11°C° 0.1 mm 5 m/s 740 mmHg 89%
    12:00 -11°C° 0 mm 4 m/s 741 mmHg 89%
    13:00 -12°C° 0 mm 4 m/s 741 mmHg 89%
    14:00 -14°C° 0 mm 4 m/s 742 mmHg 89%
    15:00 -14°C° 0 mm 3 m/s 742 mmHg 90%
    16:00 -15°C° 0 mm 3 m/s 743 mmHg 92%
    17:00 -15°C° 0 mm 2 m/s 743 mmHg 94%
    18:00 -15°C° 0 mm 2 m/s 743 mmHg 95%
    19:00 -16°C° 0 mm 2 m/s 743 mmHg 96%
    20:00 -16°C° 0 mm 2 m/s 743 mmHg 98%
    21:00 -15°C° 0 mm 2 m/s 743 mmHg 97%
    22:00 -15°C° 0 mm 3 m/s 743 mmHg 96%
    23:00 -13°C° 0 mm 3 m/s 743 mmHg 95%

    22 Ianuarie, Marţi

    Timp Temperatura Precipitaţii Vânt Presiune Umiditate
    00:00 -13°C° 0.1 mm 3 m/s 743 mmHg 95%
    01:00 -14°C° 0.1 mm 4 m/s 743 mmHg 94%
    02:00 -12°C° 0.1 mm 4 m/s 743 mmHg 94%
    03:00 -12°C° 0.1 mm 4 m/s 742 mmHg 94%
    04:00 -12°C° 0.1 mm 3 m/s 742 mmHg 94%
    05:00 -12°C° 0.1 mm 3 m/s 742 mmHg 94%
    06:00 -12°C° 0.1 mm 3 m/s 742 mmHg 95%
    07:00 -12°C° 0.1 mm 3 m/s 742 mmHg 95%
    08:00 -10°C° 0.1 mm 2 m/s 742 mmHg 96%
    09:00 -10°C° 0.2 mm 2 m/s 742 mmHg 96%
    10:00 -10°C° 0.2 mm 2 m/s 742 mmHg 96%
    11:00 -10°C° 0.2 mm 2 m/s 742 mmHg 96%
    12:00 -9°C° 0.3 mm 2 m/s 742 mmHg 95%
    13:00 -9°C° 0.3 mm 2 m/s 742 mmHg 95%
    14:00 -8°C° 0.3 mm 2 m/s 742 mmHg 95%
    15:00 -8°C° 0.2 mm 1 m/s 742 mmHg 95%
    16:00 -8°C° 0.2 mm 1 m/s 742 mmHg 96%
    17:00 -8°C° 0.2 mm 1 m/s 742 mmHg 97%
    18:00 -10°C° 0 mm 1 m/s 742 mmHg 97%
    19:00 -11°C° 0 mm 1 m/s 742 mmHg 97%
    20:00 -13°C° 0 mm 1 m/s 742 mmHg 97%
    21:00 -13°C° 0 mm 1 m/s 743 mmHg 98%
    22:00 -13°C° 0 mm 1 m/s 743 mmHg 98%
    23:00 -13°C° 0 mm 1 m/s 743 mmHg 98%
    Arată mai mult